[[{"header":{"parameterUnit":"m.s-1","parameterCategory":1,"la1":30.2991,"la2":30.254,"lo1":-89.0895,"lo2":-89.0444,"dy":0.0017,"dx":0.0017,"nx":28,"ny":28,"refTime":"2024-04-23T03:00:00:Z","depth":0,"parameterNumber":2,"parameterNumberName":"U-component_of_WINDS"},"data":[0,0,0,0,0,0,0,0,0,0,0,0,0,0,0,0,0,0,0,0,0,0,0,0,0,0,0,0,0,0,0,0,0,0,0,0,0,0,0,0,0,0,0,0,0,0,0,0,0,0,0,0,0,0,0,0,0,0,-1.946,-1.946,0,-1.9536,-1.9537,-1.9537,-1.9526,-1.9525,-1.9523,-1.9522,-1.9598,-1.9602,-1.9605,0,0,0,0,0,0,0,0,0,0,0,0,0,-1.9302,-1.9305,-1.9459,-1.946,-1.9461,-1.9536,-1.9537,-1.9538,-1.9526,-1.9525,-1.9523,-1.9522,-1.9597,-1.9601,-1.9605,0,0,0,0,0,0,0,0,0,0,0,0,0,-1.9374,-1.9306,-1.9459,-1.9465,-1.9466,-1.9535,-1.9537,-1.9538,-1.9526,-1.9525,-1.9523,-1.9521,-1.9596,-1.9601,-1.9606,-1.9674,0,0,-1.962,-1.9622,0,0,0,0,0,0,0,0,-1.937,-1.9379,-1.9463,-1.9464,-1.9466,-1.9519,-1.9509,-1.9584,-1.9527,-1.9503,-1.9522,-1.952,-1.9574,-1.958,-1.9599,-1.9678,-1.9681,-1.9621,-1.9624,-1.9626,-1.9627,0,0,0,0,0,0,0,-1.9365,-1.9376,-1.949,-1.9464,-1.9466,-1.9463,-1.9471,-1.9523,-1.9548,-1.9505,-1.9505,-1.9514,-1.9574,-1.9594,-1.96,-1.9682,-1.9621,-1.9625,-1.9628,-1.963,-1.9821,-1.9823,0,0,0,0,0,0,-1.9359,-1.9372,-1.9487,-1.9492,-1.9412,-1.9467,-1.9476,-1.9504,-1.9548,-1.9553,-1.9516,-1.9513,-1.9587,-1.9595,-1.9603,-1.9685,-1.9626,-1.963,-1.9633,-1.9819,-1.9821,-1.9823,0,0,0,0,0,0,-1.9355,-1.9369,-1.9484,-1.9432,-1.9446,-1.9472,-1.9503,-1.9507,-1.9527,-1.9555,-1.956,-1.9531,-1.9585,-1.9596,-1.9656,-1.9688,-1.9632,-1.9637,-1.9816,-1.9819,-1.9822,-1.9851,0,0,0,0,0,0,-1.9351,-1.9368,-1.9394,-1.9433,-1.9449,-1.9537,-1.9505,-1.951,-1.9535,-1.9533,-1.9571,-1.9576,-1.9585,-1.9649,-1.9661,-1.9693,-1.9641,-1.9813,-1.9817,-1.9821,-1.9847,-1.9854,-1.9861,0,0,0,0,0,-1.9345,-1.9399,-1.9396,-1.941,-1.9483,-1.9539,-1.9548,-1.9557,-1.9538,-1.9564,-1.9583,-1.9575,-1.9683,-1.9656,-1.9669,-1.9703,-1.9811,-1.9816,-1.9821,-1.9844,-1.9853,-1.9861,0,0,0,0,0,0,-1.9363,-1.9404,-1.9401,-1.9469,-1.95,-1.9536,-1.957,-1.9567,-1.9604,-1.96,-1.961,-1.9619,-1.968,-1.9698,-1.9667,-1.9771,-1.9744,-1.9752,-1.9757,-1.9766,-1.9773,-1.9766,-1.9645,0,0,0,0,0,-1.9375,-1.9417,-1.9451,-1.9507,-1.9523,-1.9544,-1.9569,-1.9574,-1.9606,-1.9619,-1.9642,-1.9674,-1.9715,-1.9742,-1.9781,-1.985,-1.9858,-1.988,-1.9887,-1.9893,-1.9899,-1.9936,-1.9946,-1.9839,-1.9839,-1.9839,0,0,-1.9399,-1.9427,-1.9453,-1.9511,-1.9536,-1.9579,-1.9555,-1.9602,-1.9633,-1.9626,-1.9684,-1.9703,-1.9739,-1.9804,-1.9833,-1.982,-1.993,-1.9899,-1.9903,-1.9906,-1.9942,-1.9952,-1.9961,-1.9843,-1.9842,-1.9842,0,0,-1.9466,-1.9492,-1.9541,-1.9567,-1.9606,-1.9619,-1.9631,-1.9669,-1.9681,-1.974,-1.9735,-1.9773,-1.9844,-1.9869,-1.9892,-1.9969,-1.9963,-1.9982,-2.0017,-2.0053,-2.0061,-2.0069,-2.0095,-2.0105,-1.9988,-1.9988,-1.9988,0,-1.9491,-1.9556,-1.9567,-1.9614,-1.9639,-1.9636,-1.9686,-1.9711,-1.976,-1.9777,-1.9763,-1.9851,-1.9876,-1.9946,-1.9965,-1.9984,-1.9997,-1.9976,-2.006,-2.0067,-2.0074,-2.0099,-2.0109,-1.999,-1.999,-1.999,-1.999,0,-1.9584,-1.963,-1.9665,-1.9713,-1.9743,-1.9791,-1.9809,-1.9838,-1.9841,-1.9856,-1.9916,-1.9945,-1.999,-2.0008,-2.0011,-2.0079,-2.0069,-2.0057,-2.003,-2.0086,-2.011,-2.012,-1.9993,-1.9992,-1.9992,-1.9991,0,0,-1.9661,-1.9717,-1.9729,-1.9751,-1.9794,-1.9829,-1.9877,-1.9922,-1.9946,-1.9981,-2.002,-2.0081,-2.007,-2.0096,-2.0102,-2.0134,-2.0192,-2.0118,-2.0119,-2.0129,-2.0267,-2.0275,-2.0286,-2.0189,-2.0191,-2.0192,-2.0264,0,-1.9731,-1.9816,-1.9828,-1.9903,-1.9945,-1.9943,-1.9985,-2.0016,-2.0032,-2.0069,-2.0087,-2.0129,-2.0112,-2.0127,-2.0159,-2.0178,-2.0219,-2.0173,-2.0225,-2.0226,-2.0213,-2.0298,-2.0306,-2.0372,-2.0273,-2.0275,-2.0276,0,-1.9822,-1.986,-1.9939,-1.9977,-1.9995,-2.0032,-2.0074,-2.011,-2.0145,-2.0154,-2.0184,-2.0186,-2.0235,-2.0208,-2.0276,-2.0244,-2.0266,-2.0279,-2.0282,-2.0285,-2.0253,-2.0302,-2.0393,-2.0402,-2.0291,-2.029,-2.0289,0,-1.9868,-1.9939,-1.9996,-2.0015,-2.006,-2.0087,-2.0107,-2.014,-2.0166,-2.0203,-2.022,-2.0262,-2.0285,-2.0317,-2.0331,-2.031,-2.0398,-2.0371,-2.0405,-2.0405,-2.0422,-2.042,-2.0516,-2.044,-2.044,-2.044,-2.0439,0,-1.9942,-1.9991,-2.0017,-2.0051,-2.0106,-2.0119,-2.0172,-2.0191,-2.0221,-2.0259,-2.0261,-2.0296,-2.0313,-2.0351,-2.0362,-2.0416,-2.0427,-2.0435,-2.0437,-2.0434,-2.0432,-2.0446,-2.0441,-2.0442,-2.0442,-2.0441,-2.0441,0,-2.0002,-2.0022,-2.0083,-2.0122,-2.0133,-2.0171,-2.0204,-2.0237,-2.0254,-2.0301,-2.0313,-2.0339,-2.0384,-2.0401,-2.0456,-2.0464,-2.0525,-2.0524,-2.0513,-2.0513,-2.0546,-2.0542,-2.0652,-2.0667,-2.0583,-2.0584,-2.0584,0,-2.0047,-2.0084,-2.0127,-2.0153,-2.0174,-2.0216,-2.0243,-2.0259,-2.0287,-2.033,-2.0358,-2.0403,-2.0439,-2.0511,-2.0534,-2.0576,-2.0575,-2.0611,-2.0581,-2.0576,-2.0573,-2.057,-2.0573,-2.0615,-2.0616,-2.0617,-2.0618,0,-2.0124,-2.0132,-2.0172,-2.0215,-2.0247,-2.0282,-2.0315,-2.0336,-2.0357,-2.0388,-2.0434,-2.0463,-2.0519,-2.0563,-2.0607,-2.0627,-2.0625,-2.0627,-2.0637,-2.0633,-2.0624,-2.0627,-2.0526,-2.0624,-2.0623,-2.0623,-2.0623,-2.0622,-2.0176,-2.0209,-2.0245,-2.0289,-2.0316,-2.0347,-2.038,-2.0402,-2.0441,-2.0488,-2.0495,-2.0544,-2.0579,-2.0637,-2.0659,-2.0698,-2.0688,-2.0703,-2.0706,-2.0709,-2.071,-2.062,-2.0706,-2.0706,-2.0706,-2.0705,-2.0705,0,-2.0252,-2.0275,-2.0316,-2.0363,-2.0397,-2.0395,-2.0432,-2.046,-2.0504,-2.0537,-2.0573,-2.0626,-2.0669,-2.0697,-2.074,-2.0766,-2.0766,-2.0776,-2.0773,-2.0778,-2.0717,-2.0703,-2.0775,-2.0775,-2.0775,-2.0775,-2.0775,-2.0775,-2.0295,-2.035,-2.0363,-2.0432,-2.0455,-2.0503,-2.0525,-2.0554,-2.058,-2.0639,-2.0675,-2.0693,-2.0724,-2.077,-2.0809,-2.0816,-2.0831,-2.0842,-2.0847,-2.079,-2.0782,-2.0775,-2.0762,-2.0845,-2.0845,-2.0905,-2.0905,-2.0906]},{"header":{"parameterUnit":"m.s-1","parameterCategory":1,"la1":30.2991,"la2":30.254,"lo1":-89.0895,"lo2":-89.0444,"dy":0.0017,"dx":0.0017,"nx":28,"ny":28,"refTime":"2024-04-23T03:00:00:Z","depth":0,"parameterNumber":3,"parameterNumberName":"V-component_of_WINDS"},"data":[0,0,0,0,0,0,0,0,0,0,0,0,0,0,0,0,0,0,0,0,0,0,0,0,0,0,0,0,0,0,0,0,0,0,0,0,0,0,0,0,0,0,0,0,0,0,0,0,0,0,0,0,0,0,0,0,0,0,-1.3447,-1.3448,0,-1.3547,-1.3548,-1.355,-1.3619,-1.362,-1.362,-1.3621,-1.3721,-1.3723,-1.3725,0,0,0,0,0,0,0,0,0,0,0,0,0,-1.3314,-1.3316,-1.3447,-1.3448,-1.3449,-1.3547,-1.3548,-1.355,-1.3619,-1.362,-1.362,-1.3621,-1.372,-1.3723,-1.3726,0,0,0,0,0,0,0,0,0,0,0,0,0,-1.3389,-1.3317,-1.3447,-1.3496,-1.3501,-1.3547,-1.3549,-1.355,-1.3619,-1.362,-1.362,-1.3621,-1.372,-1.3723,-1.3726,-1.373,0,0,-1.3736,-1.3737,0,0,0,0,0,0,0,0,-1.3384,-1.3394,-1.3487,-1.3492,-1.3499,-1.3572,-1.3539,-1.361,-1.3619,-1.3574,-1.3621,-1.3621,-1.3671,-1.3678,-1.3695,-1.3735,-1.3739,-1.3736,-1.3738,-1.374,-1.3741,0,0,0,0,0,0,0,-1.3379,-1.339,-1.3487,-1.3489,-1.3495,-1.3512,-1.3524,-1.3553,-1.3616,-1.3578,-1.3583,-1.3594,-1.3674,-1.3692,-1.3698,-1.3741,-1.3736,-1.3739,-1.3741,-1.3742,-1.379,-1.3789,0,0,0,0,0,0,-1.3367,-1.3385,-1.3483,-1.349,-1.3442,-1.3514,-1.3527,-1.3547,-1.3616,-1.3628,-1.3593,-1.3597,-1.3686,-1.3694,-1.3702,-1.3711,-1.374,-1.3743,-1.3745,-1.3791,-1.379,-1.3789,0,0,0,0,0,0,-1.3363,-1.3375,-1.3479,-1.3439,-1.3453,-1.3516,-1.3538,-1.3549,-1.3567,-1.3628,-1.364,-1.36,-1.3687,-1.3697,-1.3723,-1.3716,-1.3744,-1.3747,-1.3791,-1.379,-1.3789,-1.373,0,0,0,0,0,0,-1.3359,-1.3373,-1.3376,-1.3438,-1.3455,-1.3499,-1.3537,-1.355,-1.3572,-1.3578,-1.3637,-1.3648,-1.3688,-1.3718,-1.3726,-1.3721,-1.375,-1.3792,-1.3791,-1.379,-1.3733,-1.3727,-1.3722,0,0,0,0,0,-1.3354,-1.3354,-1.3375,-1.3387,-1.346,-1.3499,-1.3508,-1.3555,-1.3572,-1.3574,-1.3614,-1.3646,-1.3715,-1.372,-1.373,-1.3725,-1.3793,-1.3791,-1.379,-1.3736,-1.3729,-1.3723,0,0,0,0,0,0,-1.3288,-1.3363,-1.3387,-1.3408,-1.3446,-1.351,-1.3515,-1.3546,-1.358,-1.3584,-1.364,-1.3652,-1.3672,-1.3702,-1.3705,-1.3733,-1.3758,-1.3758,-1.3713,-1.3707,-1.3702,-1.3694,-1.3752,0,0,0,0,0,-1.3276,-1.3302,-1.3366,-1.3378,-1.3396,-1.3452,-1.3471,-1.3504,-1.3545,-1.3562,-1.3603,-1.3642,-1.3673,-1.3692,-1.3724,-1.3738,-1.3752,-1.374,-1.3735,-1.373,-1.3729,-1.374,-1.3735,-1.3784,-1.3784,-1.3784,0,0,-1.3251,-1.3295,-1.3308,-1.3366,-1.3399,-1.3424,-1.3465,-1.349,-1.3509,-1.3565,-1.3592,-1.3624,-1.3672,-1.3692,-1.3703,-1.3717,-1.3719,-1.3728,-1.3724,-1.3726,-1.3738,-1.3733,-1.3729,-1.3783,-1.3783,-1.3783,0,0,-1.3218,-1.3254,-1.3268,-1.3301,-1.3352,-1.339,-1.3393,-1.3453,-1.3476,-1.3505,-1.3548,-1.3571,-1.3623,-1.3655,-1.3678,-1.3658,-1.3689,-1.3667,-1.3639,-1.3648,-1.3644,-1.3641,-1.3634,-1.363,-1.3667,-1.3666,-1.3666,0,-1.3179,-1.3219,-1.3271,-1.3293,-1.3317,-1.3371,-1.3386,-1.3415,-1.3473,-1.3489,-1.3504,-1.357,-1.3606,-1.3635,-1.363,-1.3647,-1.3652,-1.366,-1.3641,-1.3638,-1.3636,-1.3629,-1.3627,-1.3663,-1.3664,-1.3664,-1.3664,0,-1.317,-1.3197,-1.3202,-1.3258,-1.3283,-1.3301,-1.3355,-1.3374,-1.3405,-1.3441,-1.347,-1.3515,-1.3556,-1.3566,-1.3596,-1.3599,-1.3606,-1.363,-1.3656,-1.3627,-1.3622,-1.362,-1.3659,-1.366,-1.3661,-1.3662,0,0,-1.3096,-1.3182,-1.3183,-1.3209,-1.327,-1.3292,-1.3312,-1.3354,-1.3369,-1.3408,-1.3427,-1.347,-1.3493,-1.3519,-1.3554,-1.3562,-1.3543,-1.3585,-1.3587,-1.3575,-1.3549,-1.353,-1.3527,-1.3565,-1.3564,-1.3564,-1.3545,0,-1.3072,-1.3113,-1.316,-1.3184,-1.321,-1.3262,-1.328,-1.3319,-1.3354,-1.3381,-1.3419,-1.3448,-1.3477,-1.3493,-1.3503,-1.3543,-1.3539,-1.3545,-1.3582,-1.3583,-1.3567,-1.3524,-1.3504,-1.3484,-1.3544,-1.3543,-1.3543,0,-1.3048,-1.3085,-1.3112,-1.3172,-1.3184,-1.32,-1.3243,-1.3268,-1.3313,-1.3338,-1.3368,-1.3405,-1.3429,-1.3453,-1.3487,-1.3491,-1.3509,-1.3531,-1.3531,-1.3536,-1.356,-1.3526,-1.3478,-1.3475,-1.3541,-1.3541,-1.3541,0,-1.2991,-1.3048,-1.3071,-1.3092,-1.3163,-1.3172,-1.3202,-1.3249,-1.3271,-1.3308,-1.3323,-1.3363,-1.3384,-1.3413,-1.346,-1.3473,-1.3489,-1.3517,-1.351,-1.3509,-1.351,-1.3509,-1.3463,-1.3523,-1.3523,-1.3523,-1.3523,0,-1.2958,-1.2972,-1.3047,-1.3061,-1.3079,-1.3134,-1.3149,-1.3184,-1.3225,-1.3247,-1.3294,-1.3314,-1.3375,-1.3402,-1.3439,-1.3461,-1.3471,-1.3491,-1.35,-1.3486,-1.3483,-1.3498,-1.35,-1.3522,-1.3522,-1.3522,-1.3523,0,-1.2896,-1.2947,-1.2976,-1.3041,-1.3057,-1.3067,-1.3123,-1.3138,-1.3176,-1.3203,-1.3213,-1.3272,-1.3306,-1.3356,-1.3405,-1.343,-1.3446,-1.3462,-1.3431,-1.3436,-1.3427,-1.3426,-1.3387,-1.3385,-1.3446,-1.3446,-1.3445,0,-1.2871,-1.2884,-1.295,-1.2968,-1.2997,-1.3026,-1.3049,-1.3104,-1.3127,-1.318,-1.319,-1.3228,-1.3261,-1.3312,-1.3359,-1.3397,-1.3414,-1.3398,-1.3419,-1.3405,-1.3413,-1.3411,-1.3412,-1.3392,-1.3391,-1.339,-1.3389,0,-1.2821,-1.2846,-1.2879,-1.292,-1.2947,-1.2982,-1.3019,-1.3032,-1.3095,-1.3117,-1.3153,-1.3179,-1.323,-1.3266,-1.3311,-1.3341,-1.3375,-1.3382,-1.3383,-1.3368,-1.3349,-1.3358,-1.3416,-1.3383,-1.3383,-1.3384,-1.3384,-1.3384,-1.2777,-1.279,-1.284,-1.2874,-1.2909,-1.2943,-1.2961,-1.3002,-1.3033,-1.3079,-1.311,-1.3143,-1.319,-1.3253,-1.3282,-1.3309,-1.3324,-1.3324,-1.3324,-1.3323,-1.3318,-1.3345,-1.3318,-1.3318,-1.3318,-1.3318,-1.3319,0,-1.2729,-1.2764,-1.2795,-1.2847,-1.2874,-1.2906,-1.2949,-1.2969,-1.2999,-1.304,-1.3072,-1.3113,-1.315,-1.32,-1.324,-1.3252,-1.3269,-1.3261,-1.326,-1.3266,-1.3303,-1.3298,-1.3247,-1.3247,-1.3247,-1.3247,-1.3247,-1.3247,-1.2707,-1.2732,-1.2763,-1.2805,-1.284,-1.2874,-1.2896,-1.2928,-1.2961,-1.3005,-1.3036,-1.3069,-1.3114,-1.3158,-1.3193,-1.3207,-1.3219,-1.3206,-1.3224,-1.3257,-1.3264,-1.327,-1.3266,-1.3208,-1.3208,-1.3186,-1.3185,-1.3185]}]]